Time,TemperatureF,DewpointF,PressureIn,WindDirection,WindDirectionDegrees,WindSpeedMPH,WindSpeedGustMPH,Humidity,HourlyPrecipIn,Conditions,Clouds,dailyrainin,SoftwareType,DateUTC
2013-06-26 00:00:00,71.0,60.7,29.57,SW,225,4.0,9.0,70,0.00,,,-99.99,Weather View 32 v60,2013-06-26 04:00:00,
2013-06-26 00:13:00,71.0,60.7,29.58,SW,225,1.0,9.0,70,0.00,,,-99.99,Weather View 32 v60,2013-06-26 04:13:00,
2013-06-26 00:18:00,71.0,59.9,29.59,South,180,6.0,9.0,68,0.00,,,-99.99,Weather View 32 v60,2013-06-26 04:18:00,
2013-06-26 00:23:00,70.0,58.9,29.59,SW,225,2.0,10.0,68,0.00,,,-99.99,Weather View 32 v60,2013-06-26 04:23:00,
2013-06-26 00:28:00,70.0,58.9,29.59,SE,135,6.0,10.0,68,0.00,,,-99.99,Weather View 32 v60,2013-06-26 04:28:00,
2013-06-26 00:33:00,70.0,58.5,29.59,South,180,2.0,10.0,67,0.00,,,-99.99,Weather View 32 v60,2013-06-26 04:33:00,
2013-06-26 00:35:00,70.0,58.1,29.59,SW,225,3.0,10.0,66,0.00,,,-99.99,Weather View 32 v60,2013-06-26 04:35:00,
2013-06-26 00:48:00,70.0,57.7,29.59,SSW,202,9.0,10.0,65,0.00,,,-99.99,Weather View 32 v60,2013-06-26 04:48:00,
2013-06-26 00:53:00,70.0,58.1,29.59,SSW,202,9.0,18.0,66,0.00,,,-99.99,Weather View 32 v60,2013-06-26 04:53:00,
2013-06-26 00:58:00,70.0,58.1,29.59,South,180,7.0,18.0,66,0.00,,,-99.99,Weather View 32 v60,2013-06-26 04:58:00,
2013-06-26 01:03:00,70.0,58.5,29.59,SSE,157,8.0,18.0,67,0.00,,,-99.99,Weather View 32 v60,2013-06-26 05:03:00,
2013-06-26 01:08:00,70.0,58.9,29.58,SSW,202,4.0,18.0,68,0.00,,,-99.99,Weather View 32 v60,2013-06-26 05:08:00,
2013-06-26 01:10:00,70.0,58.9,29.58,WSW,247,6.0,18.0,68,0.00,,,-99.99,Weather View 32 v60,2013-06-26 05:10:00,
2013-06-26 01:23:00,70.0,60.1,29.57,SW,225,4.0,21.0,71,0.00,,,-99.99,Weather View 32 v60,2013-06-26 05:23:00,
2013-06-26 01:28:00,70.0,61.7,29.57,South,180,7.0,21.0,75,0.00,,,-99.99,Weather View 32 v60,2013-06-26 05:28:00,
2013-06-26 01:33:00,70.0,61.7,29.57,SSW,202,7.0,21.0,75,0.00,,,-99.99,Weather View 32 v60,2013-06-26 05:33:00,
2013-06-26 01:38:00,70.0,61.7,29.57,South,180,3.0,21.0,75,0.00,,,-99.99,Weather View 32 v60,2013-06-26 05:38:00,
2013-06-26 01:43:00,70.0,62.1,29.57,South,180,6.0,21.0,76,0.00,,,-99.99,Weather View 32 v60,2013-06-26 05:43:00,
2013-06-26 01:48:00,70.0,61.7,29.57,South,180,7.0,21.0,75,0.00,,,-99.99,Weather View 32 v60,2013-06-26 05:48:00,
2013-06-26 01:53:00,70.0,60.9,29.57,SW,225,8.0,21.0,73,0.00,,,-99.99,Weather View 32 v60,2013-06-26 05:53:00,
2013-06-26 01:58:00,70.0,60.9,29.57,South,180,5.0,21.0,73,0.00,,,-99.99,Weather View 32 v60,2013-06-26 05:58:00,
2013-06-26 02:03:00,70.0,60.9,29.57,SSW,202,5.0,21.0,73,0.00,,,-99.99,Weather View 32 v60,2013-06-26 06:03:00,
2013-06-26 02:08:00,70.0,60.1,29.56,SW,225,21.0,22.0,71,0.00,,,-99.99,Weather View 32 v60,2013-06-26 06:08:00,
2013-06-26 02:13:00,69.0,58.0,29.56,SW,225,9.0,24.0,68,0.00,,,-99.99,Weather View 32 v60,2013-06-26 06:13:00,
2013-06-26 02:18:00,69.0,56.3,29.56,WSW,247,12.0,24.0,64,0.00,,,-99.99,Weather View 32 v60,2013-06-26 06:18:00,
2013-06-26 02:23:00,69.0,55.4,29.56,WSW,247,7.0,26.0,62,0.00,,,-99.99,Weather View 32 v60,2013-06-26 06:23:00,
2013-06-26 02:28:00,69.0,55.0,29.55,SW,225,12.0,26.0,61,0.00,,,-99.99,Weather View 32 v60,2013-06-26 06:28:00,
2013-06-26 02:33:00,68.0,54.0,29.55,WSW,247,6.0,26.0,61,0.00,,,-99.99,Weather View 32 v60,2013-06-26 06:33:00,
2013-06-26 02:38:00,68.0,55.8,29.57,SW,225,6.0,26.0,65,0.00,,,-99.99,Weather View 32 v60,2013-06-26 06:38:00,
2013-06-26 02:48:00,68.0,55.8,29.57,SW,225,9.0,26.0,65,0.00,,,-99.99,Weather View 32 v60,2013-06-26 06:48:00,
2013-06-26 02:53:00,68.0,55.8,29.57,South,180,13.0,26.0,65,0.00,,,-99.99,Weather View 32 v60,2013-06-26 06:53:00,
2013-06-26 02:58:00,67.0,54.4,29.56,SW,225,10.0,26.0,64,0.00,,,-99.99,Weather View 32 v60,2013-06-26 06:58:00,
2013-06-26 03:03:00,67.0,54.0,29.56,SSW,202,14.0,26.0,63,0.00,,,-99.99,Weather View 32 v60,2013-06-26 07:03:00,
2013-06-26 03:08:00,67.0,52.6,29.56,SW,225,10.0,26.0,60,0.00,,,-99.99,Weather View 32 v60,2013-06-26 07:08:00,
2013-06-26 03:13:00,67.0,52.2,29.56,SW,225,10.0,26.0,59,0.00,,,-99.99,Weather View 32 v60,2013-06-26 07:13:00,
2013-06-26 03:18:00,67.0,51.7,29.57,SW,225,14.0,26.0,58,0.00,,,-99.99,Weather View 32 v60,2013-06-26 07:18:00,
2013-06-26 03:23:00,68.0,52.6,29.57,SW,225,12.0,27.0,58,0.00,,,-99.99,Weather View 32 v60,2013-06-26 07:23:00,
2013-06-26 03:28:00,68.0,51.7,29.56,SW,225,5.0,31.0,56,0.00,,,-99.99,Weather View 32 v60,2013-06-26 07:28:00,
2013-06-26 03:33:00,68.0,51.7,29.56,SW,225,15.0,31.0,56,0.00,,,-99.99,Weather View 32 v60,2013-06-26 07:33:00,
2013-06-26 03:38:00,68.0,51.7,29.55,SW,225,12.0,31.0,56,0.00,,,-99.99,Weather View 32 v60,2013-06-26 07:38:00,
2013-06-26 03:43:00,68.0,51.7,29.55,SW,225,10.0,31.0,56,0.00,,,-99.99,Weather View 32 v60,2013-06-26 07:43:00,
2013-06-26 03:48:00,68.0,51.7,29.55,South,180,7.0,31.0,56,0.00,,,-99.99,Weather View 32 v60,2013-06-26 07:48:00,
2013-06-26 03:53:00,68.0,51.7,29.55,SW,225,10.0,31.0,56,0.00,,,-99.99,Weather View 32 v60,2013-06-26 07:53:00,
2013-06-26 03:58:00,67.0,50.3,29.55,SW,225,16.0,31.0,55,0.00,,,-99.99,Weather View 32 v60,2013-06-26 07:58:00,
2013-06-26 04:03:00,67.0,50.3,29.55,WSW,247,10.0,31.0,55,0.00,,,-99.99,Weather View 32 v60,2013-06-26 08:03:00,
2013-06-26 04:08:00,67.0,50.3,29.54,SW,225,16.0,31.0,55,0.00,,,-99.99,Weather View 32 v60,2013-06-26 08:08:00,
2013-06-26 04:13:00,67.0,50.3,29.54,West,270,19.0,31.0,55,0.00,,,-99.99,Weather View 32 v60,2013-06-26 08:13:00,
2013-06-26 04:18:00,67.0,50.3,29.55,SW,225,17.0,31.0,55,0.00,,,-99.99,Weather View 32 v60,2013-06-26 08:18:00,
2013-06-26 04:23:00,67.0,50.7,29.55,SW,225,16.0,31.0,56,0.00,,,-99.99,Weather View 32 v60,2013-06-26 08:23:00,
2013-06-26 04:28:00,67.0,50.7,29.55,West,270,16.0,28.0,56,0.00,,,-99.99,Weather View 32 v60,2013-06-26 08:28:00,
2013-06-26 04:33:00,67.0,50.3,29.55,SSW,202,12.0,28.0,55,0.00,,,-99.99,Weather View 32 v60,2013-06-26 08:33:00,
2013-06-26 04:38:00,67.0,50.3,29.54,SW,225,13.0,28.0,55,0.00,,,-99.99,Weather View 32 v60,2013-06-26 08:38:00,
2013-06-26 04:48:00,67.0,50.3,29.54,SW,225,25.0,32.0,55,0.00,,,-99.99,Weather View 32 v60,2013-06-26 08:48:00,
2013-06-26 04:53:00,67.0,50.3,29.54,SW,225,10.0,32.0,55,0.00,,,-99.99,Weather View 32 v60,2013-06-26 08:53:00,
2013-06-26 04:58:00,67.0,50.3,29.54,SW,225,12.0,32.0,55,0.00,,,-99.99,Weather View 32 v60,2013-06-26 08:58:00,
2013-06-26 05:03:00,67.0,50.3,29.54,SW,225,12.0,32.0,55,0.00,,,-99.99,Weather View 32 v60,2013-06-26 09:03:00,
2013-06-26 05:08:00,67.0,50.7,29.53,SW,225,12.0,32.0,56,0.00,,,-99.99,Weather View 32 v60,2013-06-26 09:08:00,
2013-06-26 05:13:00,67.0,51.2,29.53,SW,225,10.0,32.0,57,0.00,,,-99.99,Weather View 32 v60,2013-06-26 09:13:00,
2013-06-26 05:18:00,67.0,51.7,29.53,SW,225,5.0,32.0,58,0.00,,,-99.99,Weather View 32 v60,2013-06-26 09:18:00,
2013-06-26 05:20:00,67.0,52.2,29.53,SW,225,10.0,32.0,59,0.00,,,-99.99,Weather View 32 v60,2013-06-26 09:20:00,
2013-06-26 05:23:00,67.0,52.2,29.53,SW,225,10.0,32.0,59,0.00,,,-99.99,Weather View 32 v60,2013-06-26 09:23:00,
2013-06-26 05:33:00,67.0,0.0,29.53,SW,225,10.0,32.0,0,0.00,,,-99.99,Weather View 32 v60,2013-06-26 09:33:00,
2013-06-26 05:38:00,67.0,0.0,29.53,SSW,202,11.0,32.0,0,0.00,,,-99.99,Weather View 32 v60,2013-06-26 09:38:00,
2013-06-26 05:43:00,67.0,0.0,29.53,SW,225,5.0,27.0,0,0.00,,,-99.99,Weather View 32 v60,2013-06-26 09:43:00,
2013-06-26 05:48:00,67.0,0.0,29.53,SW,225,12.0,25.0,0,0.00,,,-99.99,Weather View 32 v60,2013-06-26 09:48:00,
2013-06-26 05:53:00,67.0,0.0,29.53,SW,225,11.0,18.0,0,0.00,,,-99.99,Weather View 32 v60,2013-06-26 09:53:00,
2013-06-26 05:58:00,67.0,0.0,29.53,West,270,7.0,18.0,0,0.00,,,-99.99,Weather View 32 v60,2013-06-26 09:58:00,
2013-06-26 06:03:00,67.0,0.0,29.53,SW,225,9.0,18.0,0,0.00,,,-99.99,Weather View 32 v60,2013-06-26 10:03:00,
2013-06-26 06:08:00,67.0,0.0,29.53,SW,225,8.0,17.0,0,0.00,,,-99.99,Weather View 32 v60,2013-06-26 10:08:00,
2013-06-26 06:13:00,67.0,0.0,29.53,SW,225,8.0,17.0,0,0.00,,,-99.99,Weather View 32 v60,2013-06-26 10:13:00,
2013-06-26 06:18:00,67.0,0.0,29.54,WSW,247,8.0,17.0,0,0.00,,,-99.99,Weather View 32 v60,2013-06-26 10:18:00,
2013-06-26 06:23:00,66.0,0.0,29.54,West,270,7.0,17.0,0,0.00,,,-99.99,Weather View 32 v60,2013-06-26 10:23:00,
2013-06-26 06:28:00,66.0,0.0,29.54,SW,225,9.0,17.0,0,0.00,,,-99.99,Weather View 32 v60,2013-06-26 10:28:00,
2013-06-26 06:38:00,66.0,0.0,29.54,SW,225,6.0,17.0,0,0.00,,,-99.99,Weather View 32 v60,2013-06-26 10:38:00,
2013-06-26 06:43:00,66.0,0.0,29.54,SSW,202,8.0,17.0,0,0.00,,,-99.99,Weather View 32 v60,2013-06-26 10:43:00,
2013-06-26 06:48:00,66.0,0.0,29.54,SE,135,5.0,17.0,0,0.00,,,-99.99,Weather View 32 v60,2013-06-26 10:48:00,
2013-06-26 06:53:00,67.0,0.0,29.54,SSE,157,6.0,14.0,0,0.00,,,-99.99,Weather View 32 v60,2013-06-26 10:53:00,
2013-06-26 06:58:00,67.0,0.0,29.54,South,180,6.0,14.0,0,0.00,,,-99.99,Weather View 32 v60,2013-06-26 10:58:00,
2013-06-26 07:03:00,67.0,0.0,29.54,South,180,8.0,13.0,0,0.00,,,-99.99,Weather View 32 v60,2013-06-26 11:03:00,
2013-06-26 07:13:00,68.0,0.0,29.55,SSE,157,16.0,17.0,0,0.00,,,-99.99,Weather View 32 v60,2013-06-26 11:13:00,
2013-06-26 07:18:00,69.0,0.0,29.54,SW,225,8.0,18.0,0,0.00,,,-99.99,Weather View 32 v60,2013-06-26 11:18:00,
2013-06-26 07:23:00,69.0,0.0,29.54,SSE,157,6.0,18.0,0,0.00,,,-99.99,Weather View 32 v60,2013-06-26 11:23:00,
2013-06-26 07:28:00,70.0,0.0,29.54,South,180,7.0,18.0,0,0.00,,,-99.99,Weather View 32 v60,2013-06-26 11:28:00,
2013-06-26 07:38:00,70.0,0.0,29.55,SW,225,8.0,18.0,0,0.00,,,-99.99,Weather View 32 v60,2013-06-26 11:38:00,
2013-06-26 07:43:00,69.0,0.0,29.55,SW,225,16.0,18.0,0,0.00,,,-99.99,Weather View 32 v60,2013-06-26 11:43:00,
2013-06-26 07:48:00,69.0,0.0,29.56,SW,225,12.0,18.0,0,0.00,,,-99.99,Weather View 32 v60,2013-06-26 11:48:00,
2013-06-26 07:53:00,69.0,0.0,29.56,SW,225,10.0,18.0,0,0.00,,,-99.99,Weather View 32 v60,2013-06-26 11:53:00,
2013-06-26 07:58:00,69.0,0.0,29.55,SW,225,10.0,18.0,0,0.00,,,-99.99,Weather View 32 v60,2013-06-26 11:58:00,
2013-06-26 08:03:00,69.0,0.0,29.55,SW,225,6.0,21.0,0,0.00,,,-99.99,Weather View 32 v60,2013-06-26 12:03:00,
2013-06-26 08:08:00,69.0,0.0,29.55,South,180,7.0,21.0,0,0.00,,,-99.99,Weather View 32 v60,2013-06-26 12:08:00,
2013-06-26 08:13:00,69.0,0.0,29.55,SW,225,6.0,21.0,0,0.00,,,-99.99,Weather View 32 v60,2013-06-26 12:13:00,
2013-06-26 08:18:00,69.0,0.0,29.55,SSW,202,7.0,21.0,0,0.00,,,-99.99,Weather View 32 v60,2013-06-26 12:18:00,
2013-06-26 08:23:00,69.0,0.0,29.55,South,180,12.0,21.0,0,0.00,,,-99.99,Weather View 32 v60,2013-06-26 12:23:00,
2013-06-26 08:28:00,69.0,0.0,29.56,SW,225,13.0,21.0,0,0.00,,,-99.99,Weather View 32 v60,2013-06-26 12:28:00,
2013-06-26 08:38:00,68.0,0.0,29.56,SW,225,18.0,21.0,0,0.00,,,-99.99,Weather View 32 v60,2013-06-26 12:38:00,
2013-06-26 08:43:00,68.0,0.0,29.56,SW,225,11.0,21.0,0,0.00,,,-99.99,Weather View 32 v60,2013-06-26 12:43:00,
2013-06-26 08:48:00,68.0,0.0,29.56,SW,225,7.0,21.0,0,0.00,,,-99.99,Weather View 32 v60,2013-06-26 12:48:00,
2013-06-26 08:53:00,68.0,0.0,29.56,WNW,292,3.0,21.0,0,0.00,,,-99.99,Weather View 32 v60,2013-06-26 12:53:00,
2013-06-26 08:58:00,68.0,0.0,29.57,SW,225,11.0,21.0,0,0.00,,,-99.99,Weather View 32 v60,2013-06-26 12:58:00,
2013-06-26 09:03:00,68.0,0.0,29.57,WSW,247,10.0,19.0,0,0.00,,,-99.99,Weather View 32 v60,2013-06-26 13:03:00,
2013-06-26 09:08:00,67.0,0.0,29.58,SW,225,20.0,20.0,0,0.00,,,-99.99,Weather View 32 v60,2013-06-26 13:08:00,
2013-06-26 09:13:00,67.0,0.0,29.58,SW,225,15.0,21.0,0,0.00,,,-99.99,Weather View 32 v60,2013-06-26 13:13:00,
2013-06-26 09:18:00,67.0,0.0,29.59,SW,225,12.0,21.0,0,0.00,,,-99.99,Weather View 32 v60,2013-06-26 13:18:00,
2013-06-26 09:23:00,67.0,0.0,29.59,SW,225,14.0,24.0,0,0.00,,,-99.99,Weather View 32 v60,2013-06-26 13:23:00,
2013-06-26 09:28:00,66.0,0.0,29.59,WSW,247,5.0,24.0,0,0.00,,,-99.99,Weather View 32 v60,2013-06-26 13:28:00,
2013-06-26 09:33:00,66.0,0.0,29.59,SW,225,14.0,24.0,0,0.00,,,-99.99,Weather View 32 v60,2013-06-26 13:33:00,
2013-06-26 09:38:00,66.0,0.0,29.59,WSW,247,11.0,24.0,0,0.00,,,-99.99,Weather View 32 v60,2013-06-26 13:38:00,
2013-06-26 09:43:00,66.0,0.0,29.59,WSW,247,13.0,24.0,0,0.00,,,-99.99,Weather View 32 v60,2013-06-26 13:43:00,
2013-06-26 09:48:00,66.0,0.0,29.60,WSW,247,22.0,25.0,0,0.00,,,-99.99,Weather View 32 v60,2013-06-26 13:48:00,
2013-06-26 09:53:00,65.0,0.0,29.60,West,270,11.0,25.0,0,0.00,,,-99.99,Weather View 32 v60,2013-06-26 13:53:00,
2013-06-26 09:58:00,65.0,0.0,29.59,WSW,247,14.0,25.0,0,0.00,,,-99.99,Weather View 32 v60,2013-06-26 13:58:00,
2013-06-26 10:03:00,65.0,0.0,29.59,West,270,15.0,25.0,0,0.00,,,-99.99,Weather View 32 v60,2013-06-26 14:03:00,
2013-06-26 10:08:00,65.0,0.0,29.61,SW,225,11.0,25.0,0,0.00,,,-99.99,Weather View 32 v60,2013-06-26 14:08:00,
2013-06-26 10:13:00,65.0,0.0,29.61,SW,225,11.0,25.0,0,0.00,,,-99.99,Weather View 32 v60,2013-06-26 14:13:00,
2013-06-26 10:18:00,65.0,0.0,29.61,West,270,7.0,25.0,0,0.00,,,-99.99,Weather View 32 v60,2013-06-26 14:18:00,
2013-06-26 10:23:00,65.0,0.0,29.61,SW,225,8.0,25.0,0,0.00,,,-99.99,Weather View 32 v60,2013-06-26 14:23:00,
2013-06-26 10:28:00,65.0,0.0,29.60,SW,225,10.0,25.0,0,0.00,,,-99.99,Weather View 32 v60,2013-06-26 14:28:00,
2013-06-26 10:34:00,65.0,0.0,29.60,WSW,247,16.0,27.0,0,0.00,,,-99.99,Weather View 32 v60,2013-06-26 14:34:00,
2013-06-26 10:43:00,66.0,0.0,29.60,SW,225,11.0,27.0,0,0.00,,,-99.99,Weather View 32 v60,2013-06-26 14:43:00,
2013-06-26 10:48:00,66.0,0.0,29.59,South,180,9.0,27.0,0,0.00,,,-99.99,Weather View 32 v60,2013-06-26 14:48:00,
2013-06-26 10:53:00,66.0,0.0,29.59,SW,225,10.0,27.0,0,0.00,,,-99.99,Weather View 32 v60,2013-06-26 14:53:00,
2013-06-26 10:58:00,66.0,0.0,29.58,West,270,5.0,27.0,0,0.00,,,-99.99,Weather View 32 v60,2013-06-26 14:58:00,
2013-06-26 11:03:00,66.0,0.0,29.58,SW,225,5.0,27.0,0,0.00,,,-99.99,Weather View 32 v60,2013-06-26 15:03:00,
2013-06-26 11:08:00,67.0,0.0,29.56,SE,135,5.0,27.0,0,0.00,,,-99.99,Weather View 32 v60,2013-06-26 15:08:00,
2013-06-26 11:13:00,67.0,0.0,29.56,SE,135,4.0,27.0,0,0.00,,,-99.99,Weather View 32 v60,2013-06-26 15:13:00,
2013-06-26 11:18:00,68.0,0.0,29.55,SE,135,8.0,27.0,0,0.00,,,-99.99,Weather View 32 v60,2013-06-26 15:18:00,
2013-06-26 11:23:00,68.0,0.0,29.55,East,90,9.0,27.0,0,0.00,,,-99.99,Weather View 32 v60,2013-06-26 15:23:00,
2013-06-26 11:33:00,70.0,0.0,29.53,East,90,6.0,27.0,0,0.00,,,-99.99,Weather View 32 v60,2013-06-26 15:33:00,
2013-06-26 11:38:00,70.0,0.0,29.51,ESE,112,6.0,21.0,0,0.00,,,-99.99,Weather View 32 v60,2013-06-26 15:38:00,
2013-06-26 11:43:00,70.0,0.0,29.51,South,180,9.0,20.0,0,0.00,,,-99.99,Weather View 32 v60,2013-06-26 15:43:00,
2013-06-26 11:48:00,71.0,0.0,29.52,East,90,4.0,20.0,0,0.00,,,-99.99,Weather View 32 v60,2013-06-26 15:48:00,
2013-06-26 11:53:00,71.0,0.0,29.52,SE,135,12.0,31.0,0,0.00,,,-99.99,Weather View 32 v60,2013-06-26 15:53:00,
2013-06-26 11:58:00,71.0,0.0,29.51,SE,135,6.0,31.0,0,0.00,,,-99.99,Weather View 32 v60,2013-06-26 15:58:00,
2013-06-26 12:03:00,71.0,0.0,29.51,SE,135,9.0,31.0,0,0.00,,,-99.99,Weather View 32 v60,2013-06-26 16:03:00,
2013-06-26 12:08:00,72.0,0.0,29.51,SE,135,10.0,31.0,0,0.00,,,-99.99,Weather View 32 v60,2013-06-26 16:08:00,
2013-06-26 12:13:00,73.0,0.0,29.51,NE,45,5.0,31.0,0,0.00,,,-99.99,Weather View 32 v60,2013-06-26 16:13:00,
2013-06-26 12:18:00,74.0,0.0,29.52,East,90,9.0,31.0,0,0.00,,,-99.99,Weather View 32 v60,2013-06-26 16:18:00,
2013-06-26 12:23:00,74.0,0.0,29.52,SE,135,4.0,31.0,0,0.00,,,-99.99,Weather View 32 v60,2013-06-26 16:23:00,
2013-06-26 12:28:00,75.0,0.0,29.51,SE,135,8.0,31.0,0,0.00,,,-99.99,Weather View 32 v60,2013-06-26 16:28:00,
2013-06-26 12:33:00,75.0,0.0,29.51,SE,135,5.0,31.0,0,0.00,,,-99.99,Weather View 32 v60,2013-06-26 16:33:00,
2013-06-26 12:43:00,77.0,0.0,29.50,South,180,4.0,31.0,0,0.00,,,-99.99,Weather View 32 v60,2013-06-26 16:43:00,
2013-06-26 12:48:00,77.0,0.0,29.51,NW,315,1.0,31.0,0,0.00,,,-99.99,Weather View 32 v60,2013-06-26 16:48:00,
2013-06-26 12:53:00,73.0,0.0,29.51,NW,315,7.0,31.0,0,0.00,,,-99.99,Weather View 32 v60,2013-06-26 16:53:00,
2013-06-26 12:58:00,72.0,0.0,29.51,WNW,292,9.0,17.0,0,0.00,,,-99.99,Weather View 32 v60,2013-06-26 16:58:00,
2013-06-26 13:03:00,71.0,0.0,29.51,West,270,8.0,17.0,0,0.00,,,-99.99,Weather View 32 v60,2013-06-26 17:03:00,
2013-06-26 13:08:00,72.0,0.0,29.51,NW,315,4.0,17.0,0,0.00,,,-99.99,Weather View 32 v60,2013-06-26 17:08:00,
2013-06-26 13:13:00,73.0,0.0,29.51,West,270,3.0,17.0,0,0.00,,,-99.99,Weather View 32 v60,2013-06-26 17:13:00,
2013-06-26 13:18:00,72.0,0.0,29.51,NW,315,5.0,17.0,0,0.00,,,-99.99,Weather View 32 v60,2013-06-26 17:18:00,
2013-06-26 13:23:00,70.0,0.0,29.51,WNW,292,6.0,17.0,0,0.00,,,-99.99,Weather View 32 v60,2013-06-26 17:23:00,
2013-06-26 13:28:00,71.0,0.0,29.51,NW,315,6.0,14.0,0,0.00,,,-99.99,Weather View 32 v60,2013-06-26 17:28:00,
2013-06-26 13:33:00,70.0,0.0,29.51,West,270,5.0,14.0,0,0.00,,,-99.99,Weather View 32 v60,2013-06-26 17:33:00,
2013-06-26 13:43:00,71.0,0.0,29.51,NW,315,6.0,14.0,0,0.00,,,-99.99,Weather View 32 v60,2013-06-26 17:43:00,
2013-06-26 13:48:00,71.0,0.0,29.51,NNW,337,3.0,14.0,0,0.00,,,-99.99,Weather View 32 v60,2013-06-26 17:48:00,
2013-06-26 13:53:00,71.0,0.0,29.51,NW,315,5.0,14.0,0,0.00,,,-99.99,Weather View 32 v60,2013-06-26 17:53:00,
2013-06-26 13:58:00,71.0,0.0,29.51,NW,315,5.0,14.0,0,0.00,,,-99.99,Weather View 32 v60,2013-06-26 17:58:00,
2013-06-26 14:03:00,72.0,0.0,29.51,NW,315,3.0,11.0,0,0.00,,,-99.99,Weather View 32 v60,2013-06-26 18:03:00,
2013-06-26 14:05:00,74.0,0.0,29.50,NW,315,3.0,11.0,0,0.00,,,-99.99,Weather View 32 v60,2013-06-26 18:05:00,
2013-06-26 14:08:00,74.0,0.0,29.50,NW,315,3.0,11.0,0,0.00,,,-99.99,Weather View 32 v60,2013-06-26 18:08:00,
2013-06-26 14:18:00,77.0,74.5,29.47,East,90,5.0,11.0,92,0.00,,,-99.99,Weather View 32 v60,2013-06-26 18:18:00,
2013-06-26 14:23:00,77.0,74.5,29.47,SE,135,8.0,14.0,92,0.00,,,-99.99,Weather View 32 v60,2013-06-26 18:23:00,
2013-06-26 14:28:00,78.0,75.1,29.47,NE,45,2.0,14.0,91,0.00,,,-99.99,Weather View 32 v60,2013-06-26 18:28:00,
2013-06-26 14:33:00,78.0,75.1,29.47,SSW,202,1.0,14.0,91,0.00,,,-99.99,Weather View 32 v60,2013-06-26 18:33:00,
2013-06-26 14:38:00,79.0,75.5,29.48,North,360,2.0,14.0,89,0.00,,,-99.99,Weather View 32 v60,2013-06-26 18:38:00,
2013-06-26 14:43:00,79.0,75.8,29.48,SE,135,1.0,14.0,90,0.00,,,-99.99,Weather View 32 v60,2013-06-26 18:43:00,
2013-06-26 14:48:00,79.0,75.5,29.48,SE,135,6.0,14.0,89,0.00,,,-99.99,Weather View 32 v60,2013-06-26 18:48:00,
2013-06-26 14:53:00,75.0,72.2,29.48,North,360,6.0,14.0,91,0.00,,,-99.99,Weather View 32 v60,2013-06-26 18:53:00,
2013-06-26 14:58:00,74.0,70.9,29.48,North,360,5.0,14.0,90,0.00,,,-99.99,Weather View 32 v60,2013-06-26 18:58:00,
2013-06-26 15:03:00,72.0,67.9,29.48,North,360,7.0,14.0,87,0.00,,,-99.99,Weather View 32 v60,2013-06-26 19:03:00,
2013-06-26 15:08:00,74.0,70.5,29.49,North,360,0.0,14.0,89,0.00,,,-99.99,Weather View 32 v60,2013-06-26 19:08:00,
2013-06-26 15:13:00,76.0,73.5,29.49,North,360,0.0,14.0,92,0.00,,,-99.99,Weather View 32 v60,2013-06-26 19:13:00,
2013-06-26 15:18:00,77.0,74.5,29.48,West,270,0.0,14.0,92,0.00,,,-99.99,Weather View 32 v60,2013-06-26 19:18:00,
2013-06-26 15:23:00,78.0,74.5,29.48,SSE,157,3.0,14.0,89,0.00,,,-99.99,Weather View 32 v60,2013-06-26 19:23:00,
2013-06-26 15:29:00,78.0,73.8,29.47,ENE,67,0.0,12.0,87,0.00,,,-99.99,Weather View 32 v60,2013-06-26 19:29:00,
2013-06-26 15:38:00,77.0,73.8,29.47,NW,315,5.0,12.0,90,0.00,,,-99.99,Weather View 32 v60,2013-06-26 19:38:00,
2013-06-26 15:43:00,77.0,73.8,29.47,NNW,337,6.0,11.0,90,0.00,,,-99.99,Weather View 32 v60,2013-06-26 19:43:00,
2013-06-26 15:48:00,77.0,74.2,29.47,North,360,0.0,11.0,91,0.00,,,-99.99,Weather View 32 v60,2013-06-26 19:48:00,
2013-06-26 15:54:00,78.0,0.0,29.46,NNW,337,3.0,11.0,0,0.00,,,-99.99,Weather View 32 v60,2013-06-26 19:54:00,
2013-06-26 16:03:00,74.0,0.0,29.46,North,360,20.0,23.0,0,0.00,,,-99.99,Weather View 32 v60,2013-06-26 20:03:00,
2013-06-26 16:08:00,72.0,0.0,29.46,North,360,11.0,23.0,0,0.00,,,-99.99,Weather View 32 v60,2013-06-26 20:08:00,
2013-06-26 16:13:00,70.0,0.0,29.46,NE,45,7.0,23.0,0,0.00,,,-99.99,Weather View 32 v60,2013-06-26 20:13:00,
2013-06-26 16:18:00,71.0,0.0,29.47,North,360,13.0,23.0,0,0.00,,,-99.99,Weather View 32 v60,2013-06-26 20:18:00,
2013-06-26 16:23:00,70.0,0.0,29.47,North,360,10.0,23.0,0,0.00,,,-99.99,Weather View 32 v60,2013-06-26 20:23:00,
2013-06-26 16:28:00,71.0,0.0,29.47,NE,45,6.0,23.0,0,0.00,,,-99.99,Weather View 32 v60,2013-06-26 20:28:00,
2013-06-26 16:33:00,72.0,0.0,29.47,North,360,13.0,23.0,0,0.00,,,-99.99,Weather View 32 v60,2013-06-26 20:33:00,
2013-06-26 16:38:00,70.0,0.0,29.47,North,360,11.0,23.0,0,0.00,,,-99.99,Weather View 32 v60,2013-06-26 20:38:00,
2013-06-26 16:43:00,70.0,0.0,29.47,NE,45,8.0,23.0,0,0.00,,,-99.99,Weather View 32 v60,2013-06-26 20:43:00,
2013-06-26 16:48:00,70.0,0.0,29.47,North,360,9.0,23.0,0,0.00,,,-99.99,Weather View 32 v60,2013-06-26 20:48:00,
2013-06-26 16:53:00,70.0,0.0,29.47,North,360,11.0,23.0,0,0.00,,,-99.99,Weather View 32 v60,2013-06-26 20:53:00,
2013-06-26 16:58:00,70.0,0.0,29.47,North,360,10.0,23.0,0,0.00,,,-99.99,Weather View 32 v60,2013-06-26 20:58:00,
2013-06-26 17:03:00,69.0,0.0,29.47,North,360,6.0,23.0,0,0.00,,,-99.99,Weather View 32 v60,2013-06-26 21:03:00,
2013-06-26 17:08:00,70.0,0.0,29.47,North,360,9.0,19.0,0,0.00,,,-99.99,Weather View 32 v60,2013-06-26 21:08:00,
2013-06-26 17:13:00,69.0,0.0,29.47,NNE,22,7.0,19.0,0,0.00,,,-99.99,Weather View 32 v60,2013-06-26 21:13:00,
2013-06-26 17:18:00,69.0,0.0,29.47,North,360,7.0,19.0,0,0.00,,,-99.99,Weather View 32 v60,2013-06-26 21:18:00,
2013-06-26 17:23:00,70.0,0.0,29.47,NE,45,9.0,19.0,0,0.00,,,-99.99,Weather View 32 v60,2013-06-26 21:23:00,
2013-06-26 17:28:00,71.0,0.0,29.47,NE,45,7.0,19.0,0,0.00,,,-99.99,Weather View 32 v60,2013-06-26 21:28:00,
2013-06-26 17:33:00,72.0,0.0,29.47,NE,45,7.0,19.0,0,0.00,,,-99.99,Weather View 32 v60,2013-06-26 21:33:00,
2013-06-26 17:38:00,73.0,0.0,29.47,NE,45,2.0,17.0,0,0.00,,,-99.99,Weather View 32 v60,2013-06-26 21:38:00,
2013-06-26 17:43:00,72.0,0.0,29.47,North,360,6.0,17.0,0,0.00,,,-99.99,Weather View 32 v60,2013-06-26 21:43:00,
2013-06-26 17:48:00,71.0,0.0,29.46,North,360,8.0,17.0,0,0.00,,,-99.99,Weather View 32 v60,2013-06-26 21:48:00,
2013-06-26 17:53:00,70.0,0.0,29.46,North,360,10.0,17.0,0,0.00,,,-99.99,Weather View 32 v60,2013-06-26 21:53:00,
2013-06-26 18:08:00,70.0,0.0,29.46,North,360,7.0,17.0,0,0.00,,,-99.99,Weather View 32 v60,2013-06-26 22:08:00,
2013-06-26 18:18:00,69.0,0.0,29.47,NNE,22,9.0,17.0,0,0.00,,,-99.99,Weather View 32 v60,2013-06-26 22:18:00,
2013-06-26 18:23:00,69.0,0.0,29.47,North,360,7.0,17.0,0,0.00,,,-99.99,Weather View 32 v60,2013-06-26 22:23:00,
2013-06-26 18:28:00,68.0,0.0,29.47,North,360,7.0,17.0,0,0.00,,,-99.99,Weather View 32 v60,2013-06-26 22:28:00,
2013-06-26 18:33:00,67.0,0.0,29.47,North,360,15.0,17.0,0,0.00,,,-99.99,Weather View 32 v60,2013-06-26 22:33:00,
2013-06-26 18:38:00,67.0,0.0,29.47,NNE,22,10.0,18.0,0,0.00,,,-99.99,Weather View 32 v60,2013-06-26 22:38:00,
2013-06-26 18:43:00,67.0,0.0,29.47,NNE,22,10.0,18.0,0,0.00,,,-99.99,Weather View 32 v60,2013-06-26 22:43:00,
2013-06-26 18:48:00,67.0,0.0,29.48,North,360,3.0,18.0,0,0.00,,,-99.99,Weather View 32 v60,2013-06-26 22:48:00,
2013-06-26 18:53:00,67.0,0.0,29.48,North,360,11.0,18.0,0,0.00,,,-99.99,Weather View 32 v60,2013-06-26 22:53:00,
2013-06-26 18:58:00,67.0,0.0,29.47,North,360,12.0,18.0,0,0.00,,,-99.99,Weather View 32 v60,2013-06-26 22:58:00,
2013-06-26 19:03:00,67.0,0.0,29.47,NNE,22,10.0,18.0,0,0.00,,,-99.99,Weather View 32 v60,2013-06-26 23:03:00,
2013-06-26 19:08:00,67.0,0.0,29.48,NE,45,9.0,19.0,0,0.00,,,-99.99,Weather View 32 v60,2013-06-26 23:08:00,
2013-06-26 19:14:00,67.0,0.0,29.48,North,360,10.0,19.0,0,0.00,,,-99.99,Weather View 32 v60,2013-06-26 23:14:00,
2013-06-26 19:23:00,68.0,0.0,29.47,NNE,22,11.0,26.0,0,0.00,,,-99.99,Weather View 32 v60,2013-06-26 23:23:00,
2013-06-26 19:28:00,69.0,0.0,29.48,WNW,292,9.0,26.0,0,0.00,,,-99.99,Weather View 32 v60,2013-06-26 23:28:00,
2013-06-26 19:33:00,67.0,0.0,29.48,NE,45,10.0,26.0,0,0.00,,,-99.99,Weather View 32 v60,2013-06-26 23:33:00,
2013-06-26 19:38:00,68.0,0.0,29.48,NE,45,6.0,26.0,0,0.00,,,-99.99,Weather View 32 v60,2013-06-26 23:38:00,
2013-06-26 19:43:00,67.0,0.0,29.49,West,270,8.0,26.0,0,0.00,,,-99.99,Weather View 32 v60,2013-06-26 23:43:00,
2013-06-26 19:48:00,67.0,0.0,29.49,North,360,4.0,26.0,0,0.01,,,-99.99,Weather View 32 v60,2013-06-26 23:48:00,
2013-06-26 19:53:00,67.0,0.0,29.49,West,270,8.0,26.0,0,0.01,,,-99.99,Weather View 32 v60,2013-06-26 23:53:00,
2013-06-26 19:58:00,67.0,0.0,29.49,North,360,4.0,26.0,0,0.02,,,-99.99,Weather View 32 v60,2013-06-26 23:58:00,
2013-06-26 20:08:00,67.0,0.0,29.49,NNE,22,7.0,26.0,0,0.03,,,-99.99,Weather View 32 v60,2013-06-27 00:08:00,
2013-06-26 20:13:00,67.0,0.0,29.48,North,360,5.0,26.0,0,0.04,,,-99.99,Weather View 32 v60,2013-06-27 00:13:00,
2013-06-26 20:18:00,67.0,0.0,29.48,North,360,6.0,26.0,0,0.04,,,-99.99,Weather View 32 v60,2013-06-27 00:18:00,
2013-06-26 20:23:00,67.0,0.0,29.48,NW,315,3.0,26.0,0,0.05,,,-99.99,Weather View 32 v60,2013-06-27 00:23:00,
2013-06-26 20:28:00,66.0,0.0,29.48,North,360,4.0,18.0,0,0.05,,,-99.99,Weather View 32 v60,2013-06-27 00:28:00,
2013-06-26 20:33:00,66.0,0.0,29.48,North,360,5.0,18.0,0,0.05,,,-99.99,Weather View 32 v60,2013-06-27 00:33:00,
2013-06-26 20:43:00,66.0,0.0,29.48,North,360,0.0,16.0,0,0.05,,,-99.99,Weather View 32 v60,2013-06-27 00:43:00,
2013-06-26 20:48:00,66.0,0.0,29.48,NNE,22,4.0,15.0,0,0.04,,,-99.99,Weather View 32 v60,2013-06-27 00:48:00,
2013-06-26 20:53:00,67.0,0.0,29.47,NE,45,10.0,15.0,0,0.04,,,-99.99,Weather View 32 v60,2013-06-27 00:53:00,
2013-06-26 20:58:00,67.0,0.0,29.47,NNE,22,6.0,12.0,0,0.03,,,-99.99,Weather View 32 v60,2013-06-27 00:58:00,
2013-06-26 21:03:00,67.0,0.0,29.48,NE,45,6.0,12.0,0,0.03,,,-99.99,Weather View 32 v60,2013-06-27 01:03:00,
2013-06-26 21:08:00,67.0,0.0,29.48,NE,45,6.0,12.0,0,0.02,,,-99.99,Weather View 32 v60,2013-06-27 01:08:00,
2013-06-26 21:13:00,68.0,0.0,29.47,ENE,67,6.0,12.0,0,0.01,,,-99.99,Weather View 32 v60,2013-06-27 01:13:00,
2013-06-26 21:18:00,70.0,0.0,29.47,NE,45,6.0,10.0,0,0.01,,,-99.99,Weather View 32 v60,2013-06-27 01:18:00,
2013-06-26 21:23:00,71.0,0.0,29.47,NE,45,8.0,10.0,0,0.00,,,-99.99,Weather View 32 v60,2013-06-27 01:23:00,
2013-06-26 21:28:00,71.0,0.0,29.47,NE,45,7.0,10.0,0,0.00,,,-99.99,Weather View 32 v60,2013-06-27 01:28:00,
2013-06-26 21:33:00,71.0,0.0,29.47,NE,45,6.0,10.0,0,0.00,,,-99.99,Weather View 32 v60,2013-06-27 01:33:00,
2013-06-26 21:38:00,71.0,0.0,29.47,NE,45,7.0,10.0,0,0.00,,,-99.99,Weather View 32 v60,2013-06-27 01:38:00,
2013-06-26 21:43:00,72.0,0.0,29.47,NE,45,6.0,12.0,0,0.00,,,-99.99,Weather View 32 v60,2013-06-27 01:43:00,
2013-06-26 21:48:00,71.0,0.0,29.47,North,360,7.0,12.0,0,0.00,,,-99.99,Weather View 32 v60,2013-06-27 01:48:00,
2013-06-26 21:53:00,71.0,0.0,29.47,NE,45,10.0,12.0,0,0.00,,,-99.99,Weather View 32 v60,2013-06-27 01:53:00,
2013-06-26 21:58:00,71.0,0.0,29.47,NE,45,5.0,12.0,0,0.00,,,-99.99,Weather View 32 v60,2013-06-27 01:58:00,
2013-06-26 22:03:00,72.0,0.0,29.47,NE,45,7.0,12.0,0,0.00,,,-99.99,Weather View 32 v60,2013-06-27 02:03:00,
2013-06-26 22:08:00,72.0,0.0,29.47,NE,45,5.0,12.0,0,0.00,,,-99.99,Weather View 32 v60,2013-06-27 02:08:00,
2013-06-26 22:13:00,72.0,0.0,29.47,NE,45,7.0,13.0,0,0.00,,,-99.99,Weather View 32 v60,2013-06-27 02:13:00,
2013-06-26 22:18:00,71.0,0.0,29.47,NNE,22,4.0,13.0,0,0.00,,,-99.99,Weather View 32 v60,2013-06-27 02:18:00,
2013-06-26 22:23:00,71.0,0.0,29.47,NE,45,5.0,13.0,0,0.00,,,-99.99,Weather View 32 v60,2013-06-27 02:23:00,
2013-06-26 22:28:00,71.0,0.0,29.47,East,90,5.0,13.0,0,0.00,,,-99.99,Weather View 32 v60,2013-06-27 02:28:00,
2013-06-26 22:33:00,71.0,0.0,29.47,East,90,6.0,13.0,0,0.00,,,-99.99,Weather View 32 v60,2013-06-27 02:33:00,
2013-06-26 22:38:00,71.0,0.0,29.47,East,90,6.0,13.0,0,0.00,,,-99.99,Weather View 32 v60,2013-06-27 02:38:00,
2013-06-26 22:43:00,71.0,0.0,29.48,East,90,8.0,13.0,0,0.00,,,-99.99,Weather View 32 v60,2013-06-27 02:43:00,
2013-06-26 22:48:00,72.0,0.0,29.48,ENE,67,6.0,13.0,0,0.00,,,-99.99,Weather View 32 v60,2013-06-27 02:48:00,
2013-06-26 22:53:00,71.0,0.0,29.48,North,360,6.0,13.0,0,0.00,,,-99.99,Weather View 32 v60,2013-06-27 02:53:00,
2013-06-26 22:58:00,70.0,0.0,29.48,North,360,13.0,13.0,0,0.00,,,-99.99,Weather View 32 v60,2013-06-27 02:58:00,
2013-06-26 23:03:00,69.0,0.0,29.49,NE,45,7.0,18.0,0,0.00,,,-99.99,Weather View 32 v60,2013-06-27 03:03:00,
2013-06-26 23:09:00,69.0,0.0,29.49,NNE,22,3.0,18.0,0,0.00,,,-99.99,Weather View 32 v60,2013-06-27 03:09:00,
2013-06-26 23:18:00,70.0,0.0,29.49,ENE,67,4.0,18.0,0,0.00,,,-99.99,Weather View 32 v60,2013-06-27 03:18:00,
2013-06-26 23:23:00,70.0,0.0,29.48,East,90,10.0,18.0,0,0.00,,,-99.99,Weather View 32 v60,2013-06-27 03:23:00,
2013-06-26 23:28:00,70.0,0.0,29.48,SE,135,5.0,18.0,0,0.00,,,-99.99,Weather View 32 v60,2013-06-27 03:28:00,
2013-06-26 23:33:00,70.0,0.0,29.47,SE,135,6.0,18.0,0,0.00,,,-99.99,Weather View 32 v60,2013-06-27 03:33:00,
2013-06-26 23:38:00,70.0,0.0,29.47,SE,135,6.0,18.0,0,0.00,,,-99.99,Weather View 32 v60,2013-06-27 03:38:00,
2013-06-26 23:43:00,69.0,0.0,29.47,SE,135,6.0,18.0,0,0.00,,,-99.99,Weather View 32 v60,2013-06-27 03:43:00,
2013-06-26 23:48:00,70.0,0.0,29.47,NE,45,5.0,18.0,0,0.00,,,-99.99,Weather View 32 v60,2013-06-27 03:48:00,
2013-06-26 23:53:00,70.0,0.0,29.48,East,90,3.0,18.0,0,0.00,,,-99.99,Weather View 32 v60,2013-06-27 03:53:00,
2013-06-26 23:58:00,69.0,0.0,29.48,SE,135,3.0,18.0,0,0.00,,,-99.99,Weather View 32 v60,2013-06-27 03:58:00,